Location: ??
(35.1714°N, 128.2806°E)
Time: 15:14:51
(UTC+00:00)

SL-16 R/B - Pass Details

Date: 29 October 2020
Orbit: 842 x 846 km, 71.0° (Epoch: 01 December)

Event Time Altitude Azimuth Distance (km) Brightness Sun altitude
Rises 20:47:56 0° 345° (NNW) 3,410 5.1 -12.5°
Reaches altitude 10° 20:50:31 10° 352° (N) 2,472 4.5 -11.9°
Maximum altitude 20:55:54 44° 64° (ENE) 1,161 3.4 -10.9°
Drops below altitude 10° 21:01:16 10° 136° (SE) 2,459 5.5 -9.8°
Sets 21:03:49 0° 142° (SE) 3,391 6.2 -9.3°
